Home > Weather > Barquisimeto > Past weeks

Flag for Venezuela Past Weather in Barquisimeto, Venezuela — Yesterday and Last 2 Weeks

Now
84 °F

Passing clouds.


Feels Like: 86 °F
Forecast: 67 / 92 °F
Wind: 14 mph from Southeast

Location: Barquisimeto Airport

Current Time: Aug 27, 2016 at 11:32:54 AM

Latest Report: Aug 27, 2016 at 11:00 AM


Visibility: N/A

Pressure: 30.04 "Hg (28.17 "Hg at 569m altitude)

Humidity: 51%

Dew Point: 64 °F

Location of BarquisimetoLocation

Past Weather in Barquisimeto — Graph

°F

Barquisimeto Temperature Yesterday

Maximum temperature yesterday: 88 °F (at 1:00 PM)
Minimum temperature yesterday: 72 °F (at 2:00 AM)
Average temperature yesterday: 80 °F

High & Low Weather Summary for the Past Weeks

 TemperatureHumidityPressure
High91 °F (Aug 24, 2:00 PM)100% (Aug 12, 8:00 PM)30.09 "Hg (Aug 12, 8:00 PM)
Low68 °F (Aug 14, 5:00 AM)25% (Aug 23, 5:00 AM)29.92 "Hg (Aug 15, 5:00 PM)
Average79 °F67%30.00 "Hg
* Reported Aug 12 10:00 AM — Aug 27 10:00 AM, Barquisimeto, Weather by CustomWeather, © 2016

Note: Actual official high and low records may vary slightly from our data, if they occured in-between our weather recording intervals... More about our weather records

Advertising

Barquisimeto Weather History for the Previous 24 Hours

Scroll right to see more
 ConditionsComfort  
Time TempWeatherWind HumidityBarometerVisibility
10:00 AM
Sat, Aug 27
82 °FScattered clouds.9 mph55%30.04 "HgN/A
9:00 AM79 °FScattered clouds.5 mph61%30.04 "HgN/A
8:00 AM73 °FPartly sunny.5 mph78%30.01 "HgN/A
7:00 AM73 °FPartly sunny.3 mph78%29.98 "HgN/A
6:00 AM72 °FPartly sunny.7 mph83%29.98 "HgN/A
5:00 AM73 °FPassing clouds.6 mph74%29.98 "HgN/A
2:00 AM73 °FPassing clouds.7 mph78%30.01 "HgN/A
11:00 PM
Fri, Aug 26
77 °FPassing clouds.14 mph74%30.01 "HgN/A
10:00 PM77 °FPassing clouds.12 mph74%29.98 "HgN/A
9:00 PM81 °FPassing clouds.12 mph66%29.95 "HgN/A
8:00 PM81 °FPassing clouds.12 mph66%29.95 "HgN/A
7:00 PM82 °FPassing clouds.8 mph62%29.92 "HgN/A
6:00 PM84 °FScattered clouds.8 mph55%29.92 "HgN/A
5:00 PM88 °FScattered clouds.12 mph49%29.95 "HgN/A
4:00 PM88 °FScattered clouds.9 mph49%29.95 "HgN/A
3:00 PM88 °FScattered clouds.12 mph46%29.98 "HgN/A
2:00 PM88 °FScattered clouds.14 mph49%29.98 "HgN/A
1:00 PM88 °FScattered clouds.15 mph49%30.01 "HgN/A
12:00 PM86 °FScattered clouds.15 mph49%30.04 "HgN/A
11:00 AM84 °FScattered clouds.13 mph55%30.04 "HgN/A
Weather by CustomWeather, © 2016

See weather overviewHow to use our weather pages